Regional Weather Roundup
Issued by NWS Little Rock, AR

Home | Current Version | Previous Version | Graphics & Text | Print | Product List | Glossary On
Versions: 1 2 3 4 5 6 7 8 9 10 11 12 13 14 15 16 17 18 19 20 21 22 23 24 25 26 27 28 29 30 31
000
ASUS44 KLZK 220105
RWRLZK

WEATHER ROUNDUP FOR ARKANSAS
NATIONAL WEATHER SERVICE LITTLE ROCK AR
800 PM CDT SAT OCT 21 2017

NOTE: "FAIR" INDICATES FEW OR NO CLOUDS BELOW 12,000 FEET WITH NO
SIGNIFICANT WEATHER AND/OR OBSTRUCTIONS TO VISIBILITY.

ARZ001-003-010-029-220200-
NORTHWEST ARKANSAS

CITY           SKY/WX    TMP DP  RH WIND       PRES   REMARKS
FAYETTEVILLE   MOCLDY    71  67  87 SE9       29.90F
FORT SMITH     MOCLDY    75  68  78 E9        29.88F
HARRISON       CLOUDY    69  66  90 SE7       29.95F
BENTONVILLE    MOCLDY    70  65  84 SE9       29.92S
ROGERS         PTCLDY    71  65  81 SE13      29.91F
SILOAM SPGS    CLEAR     71  66  84 SE12      29.90S
HIGHFILL       CLEAR     71  66  84 SE12      29.90S
SPRINGDALE     MOCLDY    72  66  83 SE8       29.92F
$$

ARZ004-005-016-220200-
NORTH CENTRAL ARKANSAS

CITY           SKY/WX    TMP DP  RH WIND       PRES   REMARKS
BATESVILLE     CLOUDY    74  67  78 E6        30.01R
FLIPPIN        CLOUDY    72  67  84 SE8       29.95F
MTN HOME       CLOUDY    71  68  90 SE7       29.95F
$$

ARZ040-041-220200-
WEST CENTRAL ARKANSAS

CITY           SKY/WX    TMP DP  RH WIND       PRES   REMARKS
MENA           CLOUDY    77  73  88 CALM      29.94R
$$

ARZ009-017-025-026-028-220200-
NORTHEAST ARKANSAS

CITY           SKY/WX    TMP DP  RH WIND       PRES   REMARKS
CORNING        FAIR      75  64  69 SE13      30.02
JONESBORO      PTCLDY    73  62  68 SE9       30.03R
NEWPORT        CLOUDY    75  62  64 SE14      30.02R
WALNUT RIDGE     N/A    N/A N/A N/A MISG        N/A
BLYTHEVILLE    CLEAR     73  64  73 SE8       30.06S
$$

ARZ022-023-033-042-044-220200-
CENTRAL ARKANSAS

CITY           SKY/WX    TMP DP  RH WIND       PRES   REMARKS
LITTLE ROCK    CLOUDY    74  70  87 SE6       30.00R
N LITTLE ROCK    N/A     76  69  79 S7        30.00R
JACKSONVILLE   MOCLDY    76  71  84 E3        29.99R
SEARCY         CLOUDY    78  68  71 SE10      30.01R
HOT SPRINGS    CLEAR     77  71  82 SE10      29.97R
RUSSELLVILLE   PTCLDY    72  68  87 VRB5      29.94R
CLINTON        MOCLDY    68  68 100 CALM      29.99R
$$

ARZ036-220200-
EAST ARKANSAS

CITY           SKY/WX    TMP DP  RH WIND       PRES   REMARKS
WEST MEMPHIS   PTCLDY    74  65  73 SE14      30.05R
$$

ARZ050-053-066-070-073-220200-
SOUTHWEST ARKANSAS

CITY           SKY/WX    TMP DP  RH WIND       PRES   REMARKS
ARKADELPHIA    MOCLDY    77  70  79 SE6       29.98R
CAMDEN         CLOUDY    75  70  83 SE6       29.97F
TEXARKANA      CLOUDY    78  68  71 SE9       29.92R
EL DORADO      MOCLDY    77  71  82 SE12      29.99R
DE QUEEN       MOCLDY    78  71  79 SE7       29.89R
$$

ARZ056-057-069-220200-
SOUTHEAST ARKANSAS

CITY           SKY/WX    TMP DP  RH WIND       PRES   REMARKS
PINE BLUFF     CLOUDY    75  68  78 SE8       30.01R
STUTTGART      CLOUDY    77  66  68 SE10      30.01R
MONTICELLO     MOCLDY    72  69  90 SE5       30.01S

$$






USA.gov is the U.S. government's official web portal to all federal, state and local government web resources and services.